| time (UTC) | temp F | wind direction | speed MPH | gust MPH | rain 1hr in | rain 24hr in | rain mn in | humidity % | barometer mb |
| 20260505003508 | 49 | 25 | 3.0 | 3.0 | 0.00 | 0.00 | 0.00 | 81 | 1013.4 |
| 20260505003007 | 48 | 25 | 2.0 | 3.0 | 0.00 | 0.00 | 0.00 | 81 | 1013.3 |
| 20260505002507 | 48 | 25 | 2.0 | 3.0 | 0.00 | 0.00 | 0.00 | 80 | 1013.2 |
| 20260505002008 | 48 | 12 | 2.0 | 3.0 | 0.00 | 0.00 | 0.00 | 79 | 1013.3 |
| 20260505001507 | 48 | 9 | 3.0 | 3.0 | 0.00 | 0.00 | 0.00 | 80 | 1013.2 |
| 20260505001008 | 48 | 13 | 2.0 | 3.0 | 0.00 | 0.00 | 0.00 | 79 | 1013.2 |
| 20260505000507 | 49 | 24 | 0.0 | 0.0 | 0.00 | 0.00 | 0.00 | 78 | 1013.2 |
| 20260504235509 | 50 | 313 | 0.0 | 0.0 | 0.00 | 0.00 | 0.00 | 76 | 1013.2 |
| 20260504235008 | 50 | 313 | 0.0 | 0.0 | 0.00 | 0.00 | 0.00 | 74 | 1013.2 |
| 20260504234508 | 50 | 273 | 0.0 | 0.0 | 0.00 | 0.00 | 0.00 | 74 | 1013.2 |
| 20260504234007 | 50 | 273 | 0.0 | 0.0 | 0.00 | 0.00 | 0.00 | 74 | 1013.3 |
| 20260504233507 | 50 | 273 | 0.0 | 1.0 | 0.00 | 0.00 | 0.00 | 74 | 1013.3 |
| 20260504233008 | 50 | 273 | 1.0 | 3.0 | 0.00 | 0.00 | 0.00 | 73 | 1013.4 |
| 20260504232507 | 51 | 319 | 0.0 | 0.0 | 0.00 | 0.00 | 0.00 | 73 | 1013.2 |
| 20260504231507 | 51 | 319 | 0.0 | 0.0 | 0.00 | 0.00 | 0.00 | 73 | 1013.1 |
| 20260504231007 | 51 | 319 | 0.0 | 0.0 | 0.00 | 0.00 | 0.00 | 73 | 1013.1 |
| 20260504230507 | 51 | 319 | 0.0 | 0.0 | 0.00 | 0.00 | 0.00 | 73 | 1013.0 |
| 20260504230007 | 51 | 319 | 0.0 | 0.0 | 0.00 | 0.00 | 0.00 | 73 | 1012.9 |
| 20260504225507 | 51 | 319 | 0.0 | 0.0 | 0.00 | 0.00 | 0.00 | 73 | 1013.0 |
| 20260504225007 | 51 | 319 | 0.0 | 1.0 | 0.00 | 0.00 | 0.00 | 72 | 1013.0 |
| 20260504224508 | 50 | 319 | 0.0 | 1.0 | 0.00 | 0.00 | 0.00 | 73 | 1013.1 |
| 20260504224008 | 50 | 319 | 0.0 | 0.0 | 0.00 | 0.00 | 0.00 | 74 | 1013.1 |
| 20260504223007 | 50 | 319 | 2.0 | 3.0 | 0.00 | 0.00 | 0.00 | 75 | 1013.1 |
| 20260504222507 | 50 | 319 | 2.0 | 3.0 | 0.00 | 0.00 | 0.00 | 75 | 1013.1 |
| 20260504222007 | 51 | 303 | 2.0 | 3.0 | 0.00 | 0.00 | 0.00 | 73 | 1013.1 |
| 20260504221507 | 52 | 281 | 0.0 | 3.0 | 0.00 | 0.00 | 0.00 | 72 | 1013.2 |
| 20260504221007 | 52 | 281 | 1.0 | 3.0 | 0.00 | 0.00 | 0.00 | 70 | 1013.2 |
| 20260504220507 | 52 | 282 | 2.0 | 3.0 | 0.00 | 0.00 | 0.00 | 70 | 1013.3 |
| 20260504220008 | 52 | 298 | 3.0 | 6.0 | 0.00 | 0.00 | 0.00 | 71 | 1013.3 |
| 20260504215507 | 52 | 288 | 3.0 | 5.0 | 0.00 | 0.00 | 0.00 | 72 | 1013.3 |
| 20260504214008 | 52 | 298 | 1.0 | 2.0 | 0.00 | 0.00 | 0.00 | 72 | 1013.4 |
| 20260504213507 | 52 | 298 | 0.0 | 0.0 | 0.00 | 0.00 | 0.00 | 72 | 1013.4 |
| 20260504213007 | 52 | 298 | 0.0 | 0.0 | 0.00 | 0.00 | 0.00 | 72 | 1013.3 |
| 20260504212507 | 52 | 298 | 0.0 | 2.0 | 0.00 | 0.00 | 0.00 | 72 | 1013.2 |
| 20260504212007 | 52 | 298 | 1.0 | 2.0 | 0.00 | 0.00 | 0.00 | 71 | 1013.2 |
| 20260504211507 | 52 | 298 | 0.0 | 0.0 | 0.00 | 0.00 | 0.00 | 72 | 1013.1 |
| 20260504211007 | 52 | 298 | 0.0 | 2.0 | 0.00 | 0.00 | 0.00 | 72 | 1013.1 |
| 20260504210507 | 52 | 298 | 2.0 | 3.0 | 0.00 | 0.00 | 0.00 | 72 | 1013.2 |
| 20260504210008 | 53 | 298 | 0.0 | 0.0 | 0.00 | 0.00 | 0.00 | 70 | 1013.1 |
| 20260504205507 | 53 | 298 | 0.0 | 0.0 | 0.00 | 0.00 | 0.00 | 70 | 1013.0 |
| 20260504205007 | 53 | 298 | 0.0 | 2.0 | 0.00 | 0.00 | 0.00 | 70 | 1013.0 |
| 20260504204507 | 53 | 298 | 2.0 | 3.0 | 0.00 | 0.00 | 0.00 | 70 | 1013.0 |
| 20260504204007 | 53 | 298 | 3.0 | 3.0 | 0.00 | 0.00 | 0.00 | 69 | 1013.0 |
| 20260504203507 | 53 | 309 | 3.0 | 5.0 | 0.00 | 0.00 | 0.00 | 70 | 1013.0 |
| 20260504203008 | 53 | 301 | 4.0 | 5.0 | 0.00 | 0.00 | 0.00 | 69 | 1012.9 |
| 20260504202507 | 54 | 307 | 5.0 | 5.0 | 0.00 | 0.00 | 0.00 | 69 | 1012.9 |
| 20260504202006 | 55 | 304 | 4.0 | 8.0 | 0.00 | 0.00 | 0.00 | 66 | 1012.9 |
| 20260504201508 | 55 | 290 | 5.0 | 9.0 | 0.00 | 0.00 | 0.00 | 66 | 1012.8 |
| 20260504201007 | 55 | 284 | 6.0 | 10.0 | 0.00 | 0.00 | 0.00 | 66 | 1012.8 |
| 20260504200507 | 54 | 286 | 6.0 | 9.0 | 0.00 | 0.00 | 0.00 | 67 | 1012.8 |
| 20260504200008 | 54 | 284 | 3.0 | 7.0 | 0.00 | 0.00 | 0.00 | 68 | 1012.7 |
| 20260504195507 | 55 | 283 | 5.0 | 7.0 | 0.00 | 0.00 | 0.00 | 66 | 1012.6 |
| 20260504195007 | 55 | 297 | 3.0 | 5.0 | 0.00 | 0.00 | 0.00 | 66 | 1012.3 |
| 20260504194507 | 55 | 302 | 3.0 | 5.0 | 0.00 | 0.00 | 0.00 | 67 | 1012.2 |
| 20260504194007 | 55 | 297 | 5.0 | 8.0 | 0.00 | 0.00 | 0.00 | 66 | 1012.2 |
| 20260504193507 | 55 | 300 | 4.0 | 7.0 | 0.00 | 0.00 | 0.00 | 67 | 1011.9 |
| 20260504193007 | 55 | 306 | 3.0 | 5.0 | 0.00 | 0.00 | 0.00 | 66 | 1011.7 |
| 20260504192507 | 55 | 307 | 3.0 | 5.0 | 0.00 | 0.00 | 0.00 | 66 | 1011.7 |
| 20260504191007 | 56 | 308 | 5.0 | 7.0 | 0.00 | 0.00 | 0.00 | 63 | 1011.8 |
| 20260504190507 | 57 | 308 | 5.0 | 8.0 | 0.00 | 0.00 | 0.00 | 61 | 1011.8 |
| 20260504190007 | 58 | 306 | 6.0 | 12.0 | 0.00 | 0.00 | 0.00 | 59 | 1011.7 |
| 20260504185507 | 58 | 306 | 8.0 | 13.0 | 0.00 | 0.00 | 0.00 | 58 | 1011.7 |
| 20260504185007 | 58 | 296 | 8.0 | 13.0 | 0.00 | 0.00 | 0.00 | 57 | 1011.7 |
| 20260504184508 | 58 | 294 | 6.0 | 12.0 | 0.00 | 0.00 | 0.00 | 59 | 1011.7 |
| 20260504183507 | 59 | 311 | 7.0 | 12.0 | 0.00 | 0.00 | 0.00 | 57 | 1011.6 |
| 20260504183007 | 60 | 321 | 9.0 | 14.0 | 0.00 | 0.00 | 0.00 | 55 | 1011.6 |
| 20260504182506 | 60 | 317 | 11.0 | 14.0 | 0.00 | 0.00 | 0.00 | 54 | 1011.5 |
| 20260504182006 | 60 | 317 | 11.0 | 17.0 | 0.00 | 0.00 | 0.00 | 55 | 1011.4 |
| 20260504181508 | 61 | 320 | 12.0 | 17.0 | 0.00 | 0.00 | 0.00 | 53 | 1011.4 |
| 20260504181007 | 61 | 321 | 12.0 | 15.0 | 0.00 | 0.00 | 0.00 | 53 | 1011.3 |
| 20260504180507 | 61 | 321 | 11.0 | 17.0 | 0.00 | 0.00 | 0.00 | 54 | 1011.3 |
| 20260504180008 | 62 | 318 | 11.0 | 15.0 | 0.00 | 0.00 | 0.00 | 52 | 1011.2 |
| 20260504175506 | 62 | 312 | 13.0 | 18.0 | 0.00 | 0.00 | 0.00 | 51 | 1011.1 |
| 20260504174507 | 62 | 285 | 11.0 | 16.0 | 0.00 | 0.00 | 0.00 | 51 | 1011.2 |
| 20260504174007 | 62 | 328 | 9.0 | 15.0 | 0.00 | 0.00 | 0.00 | 51 | 1011.1 |
| 20260504173507 | 63 | 306 | 10.0 | 14.0 | 0.00 | 0.00 | 0.00 | 51 | 1011.2 |
| 20260504173007 | 63 | 296 | 9.0 | 15.0 | 0.00 | 0.00 | 0.00 | 53 | 1011.0 |
| 20260504172007 | 63 | 311 | 13.0 | 18.0 | 0.00 | 0.00 | 0.00 | 50 | 1011.0 |
| 20260504171507 | 63 | 314 | 11.0 | 15.0 | 0.00 | 0.00 | 0.00 | 49 | 1011.0 |
| 20260504151007 | 67 | 245 | 9.0 | 18.0 | 0.00 | 0.00 | 0.00 | 35 | 1010.7 |
| 20260504150506 | 67 | 226 | 9.0 | 17.0 | 0.00 | 0.00 | 0.00 | 35 | 1010.7 |
| 20260504141007 | 68 | 236 | 8.0 | 14.0 | 0.00 | 0.00 | 0.00 | 37 | 1011.0 |
| 20260504130507 | 66 | 226 | 7.0 | 20.0 | 0.00 | 0.00 | 0.00 | 43 | 1011.2 |
| 20260504100508 | 60 | 233 | 2.0 | 9.0 | 0.00 | 0.00 | 0.00 | 63 | 1012.6 |
| 20260504082007 | 53 | 163 | 3.0 | 6.0 | 0.00 | 0.00 | 0.00 | 81 | 1012.7 |
| 20260504081508 | 53 | 196 | 3.0 | 6.0 | 0.00 | 0.00 | 0.00 | 81 | 1012.8 |
| 20260504080508 | 53 | 188 | 5.0 | 8.0 | 0.00 | 0.00 | 0.00 | 81 | 1012.7 |
| 20260504050508 | 51 | 142 | 0.0 | 2.0 | 0.00 | 0.13 | 0.00 | 82 | 1011.4 |
| 20260504050008 | 51 | 192 | 0.0 | 2.0 | 0.00 | 0.13 | 0.00 | 82 | 1011.4 |
| 20260504045507 | 51 | 191 | 2.0 | 3.0 | 0.00 | 0.13 | 0.00 | 83 | 1011.3 |
| 20260504045007 | 50 | 194 | 0.0 | 0.0 | 0.00 | 0.13 | 0.00 | 84 | 1011.3 |
| 20260504044007 | 50 | 323 | 0.0 | 0.0 | 0.00 | 0.13 | 0.00 | 85 | 1011.4 |
| 20260504043508 | 49 | 323 | 0.0 | 0.0 | 0.00 | 0.13 | 0.00 | 85 | 1011.4 |
| 20260504043008 | 49 | 323 | 0.0 | 0.0 | 0.00 | 0.13 | 0.00 | 84 | 1011.4 |
| 20260504042507 | 50 | 323 | 0.0 | 0.0 | 0.00 | 0.13 | 0.00 | 84 | 1011.4 |
| 20260504042008 | 50 | 323 | 0.0 | 0.0 | 0.00 | 0.13 | 0.00 | 83 | 1011.4 |
| 20260504041508 | 50 | 323 | 0.0 | 0.0 | 0.00 | 0.13 | 0.00 | 83 | 1011.4 |
| 20260504040508 | 50 | 323 | 0.0 | 0.0 | 0.00 | 0.13 | 0.00 | 83 | 1011.4 |
| 20260504040008 | 50 | 323 | 0.0 | 0.0 | 0.00 | 0.13 | 0.00 | 82 | 1011.5 |
| 20260504035508 | 50 | 323 | 0.0 | 0.0 | 0.00 | 0.13 | 0.00 | 81 | 1011.5 |
| 20260504035007 | 51 | 323 | 0.0 | 0.0 | 0.00 | 0.13 | 0.00 | 82 | 1011.4 |
| 20260504034508 | 50 | 323 | 0.0 | 0.0 | 0.00 | 0.13 | 0.00 | 82 | 1011.5 |
| 20260504034007 | 50 | 323 | 0.0 | 0.0 | 0.00 | 0.13 | 0.00 | 81 | 1011.5 |
| 20260504033507 | 50 | 323 | 0.0 | 0.0 | 0.00 | 0.13 | 0.00 | 81 | 1011.5 |
| 20260504033007 | 50 | 323 | 0.0 | 0.0 | 0.00 | 0.13 | 0.00 | 81 | 1011.5 |
| 20260504032508 | 51 | 323 | 0.0 | 0.0 | 0.00 | 0.13 | 0.00 | 80 | 1011.6 |
| 20260504032008 | 51 | 323 | 0.0 | 0.0 | 0.00 | 0.13 | 0.00 | 79 | 1011.5 |
| 20260504031508 | 51 | 323 | 0.0 | 0.0 | 0.00 | 0.13 | 0.00 | 79 | 1011.6 |
| 20260504031008 | 51 | 323 | 0.0 | 0.0 | 0.00 | 0.13 | 0.00 | 79 | 1011.6 |
| 20260504030508 | 51 | 323 | 0.0 | 0.0 | 0.00 | 0.13 | 0.00 | 79 | 1011.6 |
| 20260504025507 | 52 | 323 | 0.0 | 0.0 | 0.00 | 0.13 | 0.00 | 77 | 1011.6 |
| 20260504025008 | 52 | 323 | 0.0 | 0.0 | 0.00 | 0.13 | 0.00 | 77 | 1011.6 |
| 20260504024507 | 52 | 323 | 0.0 | 0.0 | 0.00 | 0.13 | 0.00 | 77 | 1011.5 |
| 20260504024007 | 52 | 323 | 0.0 | 0.0 | 0.00 | 0.13 | 0.00 | 77 | 1011.5 |
| 20260504023508 | 53 | 323 | 0.0 | 0.0 | 0.00 | 0.13 | 0.00 | 78 | 1011.5 |
| 20260504023008 | 52 | 323 | 0.0 | 0.0 | 0.00 | 0.13 | 0.00 | 79 | 1011.5 |
| 20260504022508 | 52 | 323 | 0.0 | 0.0 | 0.00 | 0.13 | 0.00 | 79 | 1011.5 |
| 20260504022007 | 52 | 323 | 0.0 | 0.0 | 0.00 | 0.13 | 0.00 | 79 | 1011.5 |
| 20260504021008 | 52 | 323 | 0.0 | 0.0 | 0.00 | 0.13 | 0.00 | 78 | 1011.6 |
| 20260504020508 | 53 | 323 | 0.0 | 0.0 | 0.00 | 0.13 | 0.00 | 77 | 1011.5 |
| 20260504020008 | 54 | 323 | 0.0 | 0.0 | 0.00 | 0.13 | 0.00 | 75 | 1011.5 |
| 20260504015507 | 55 | 248 | 0.0 | 0.0 | 0.00 | 0.13 | 0.00 | 73 | 1011.5 |
| 20260504015008 | 56 | 190 | 0.0 | 2.0 | 0.00 | 0.13 | 0.00 | 72 | 1011.5 |
| 20260504014507 | 56 | 189 | 1.0 | 3.0 | 0.00 | 0.13 | 0.00 | 70 | 1011.5 |
| 20260504014007 | 56 | 190 | 1.0 | 3.0 | 0.00 | 0.13 | 0.00 | 70 | 1011.6 |
| 20260504013008 | 56 | 190 | 3.0 | 5.0 | 0.00 | 0.13 | 0.00 | 69 | 1011.6 |
| 20260504012008 | 55 | 286 | 1.0 | 3.0 | 0.00 | 0.13 | 0.00 | 71 | 1011.6 |
| 20260504011508 | 55 | 286 | 0.0 | 1.0 | 0.00 | 0.13 | 0.00 | 71 | 1011.7 |
| 20260504011007 | 55 | 286 | 0.0 | 2.0 | 0.00 | 0.13 | 0.00 | 70 | 1011.8 |
| 20260504010509 | 55 | 286 | 0.0 | 0.0 | 0.00 | 0.13 | 0.00 | 71 | 1011.7 |
| 20260504010008 | 55 | 286 | 0.0 | 0.0 | 0.00 | 0.13 | 0.00 | 71 | 1011.8 |
| 20260504005507 | 55 | 286 | 0.0 | 0.0 | 0.00 | 0.13 | 0.00 | 71 | 1011.7 |
| 20260504005007 | 55 | 286 | 0.0 | 0.0 | 0.00 | 0.13 | 0.00 | 72 | 1011.7 |
| 20260504004508 | 55 | 286 | 0.0 | 0.0 | 0.00 | 0.13 | 0.00 | 72 | 1011.8 |
| 20260504004007 | 55 | 286 | 0.0 | 0.0 | 0.00 | 0.13 | 0.00 | 73 | 1011.9 |